Location: Aulus
(42.7909°N, 1.3399°E)
Time: 13:46:41
(UTC+00:00)

deb Kosmos- 1980 - Pass Details

Date: 13 October 2025
Orbit: 834 x 854 km, 71.0° (Epoch: 16 November)

Event Time Altitude Azimuth Distance (km) Brightness Sun altitude
Rises 18:53:40 0° 349° (N) 3,405 ? -18.8°
Reaches altitude 10° 18:58:30 10° 26° (NNE) 2,461 ? -19.7°
Enters shadow 18:59:27 11° 35° (NE) 2,406 ? -19.9°
